FREGAT R/B, 44454

Orbit data source: Space-Track

FREGAT R/B, 44454 is space debris originally from a launch on Tue, 30 Jul 2019 UTC launched from the Plesetsk Missile And Space Complex (PKMTR). Debris objects in space refer to the collection of defunct objects orbiting the Earth. Examples of debris include non-operational satellites, rocket bodies, and fragments generated from explosions, collisions, or faulty payload assembly.

Loading next visibility...
Identifier
44454, 2019-046B
Orbit
Molniya
Last TLE update
1 day ago
Origin
Manufacturer
Lavochkin
Mission
Spacecraft
Bus & Motor
FREGAT, Unknown motor
Mass
1,000 kg wet, 1,000 kg dry
Launch date (UTC)
2019-07-30 (6 years ago)
Launch vehicle
Unknown
Launch site
Plesetsk Missile And Space Complex (PKMTR)
Object type
Payload
Rocket body
Debris
Shape & HBR
Irr, 3.48 m
Radar Cross Section
12.110 m², Large (>1 m²)

Expand to show TLE details & history

TLE from 1 day ago
0 FREGAT R/B
1 44454U 19046B   25182.97825669  .00000587  00000-0  00000-0 0  9991
2 44454  63.0003  81.8820 7058994 276.2503  14.3999  2.00603512 43415
Epoch: 2025-07-01T23:28Z
TLE epoch observation values (Epoch: 2025-07-01T23:28:41.378Z)
Latitude
-0.00019°
Longitude
169.4877°
Altitude
6,030.943 km
Speed
7.017 km/s
True Right ascension
05h 27m 42s
True Declination
0° 00' 01"
Sunlit
Object was in daylight at epoch
Visualization orbit readout
Latitude
62.74015°
Longitude
-109.68918°
Altitude
37,230.625 km
Speed
1.81 km/s
Apparent Right ascension
09h 55m 01s
Apparent Declination
61° 48' 27"
Sunlit
Object is in daylight
Visualization observer readout
Local Sidereal Time
15:17:14
Azimuth
323.345° NNW
Elevation
38.681°
Doppler factor
1
Orbital elements
Apogee altitude
38,923.644 km
Perigee altitude
1,431.984 km
Semi-major axis
26,555.951 km
Eccentricity
0.7059
Inclination
63.0003°
RAAN
81.882°
Arg. of periapsis
276.2503°
True anomaly
Unknown
Mean anomaly
14.3999°
Eccentric anomaly
Unknown
Mean motion
0.50153 °/min
Orbital period
717.8 mins
BSTAR
0
Loading maneuver chart data...
Loading SW <> Apogee altitude chart data...
Loading historical data...
Loading historical data...
Loading historical data...
Loading historical data...
Loading historical data...
Loading historical data...
Loading historical data...
Other satellites on launch #46 in the year 2019 (2019-07-30 UTC)

FREGAT R/B Visibility forecast

Observer location: undefined°, undefined°

Span
Click to sort rows by Start time (UTC) header in descending order
Start Az.
Max El. time (UTC)
Max El. Az.
Max El.
End time (UTC)
End Az.
370 mins2025-07-03 03:32:02.984Z323.333° NNW2025-07-03 05:06:02.984Z322.315° NNW32.678°2025-07-03 09:42:02.984Z278.834° WNW
378 mins2025-07-03 13:15:02.984Z38.093° NE2025-07-03 15:48:02.984Z27.374° NE16.774°2025-07-03 19:33:02.984Z37.706° NE
216 mins2025-07-03 23:56:02.984Z287.915° WNW2025-07-04 03:32:02.984Z323.439° NNW32.062°2025-07-04 03:32:02.984Z323.439° NNW
|